Location: Grasslands National Park East Block
(49.0708°N, 106.5295°W)
Time: 06:35:07
(UTC-06:00)

Vanguard 1 - Pass Details

Date: 01 October 2019
Orbit: 653 x 3830 km, 34.2° (Epoch: 18 October)

Event Time Altitude Azimuth Distance (km) Brightness Sun altitude
Rises 01:57:53 0° 246° (WSW) 7,004 - -42.2°
Reaches altitude 10° 02:02:17 10° 241° (WSW) 6,288 - -41.9°
Maximum altitude 02:22:55 53° 173° (S) 4,376 - -40.5°
Exits shadow 02:23:26 53° 170° (S) 4,376 12.8 -40.4°
Drops below altitude 10° 02:43:19 10° 106° (ESE) 6,233 14.3 -38.7°
Sets 02:47:38 0° 101° (ESE) 6,943 14.7 -38.3°
